Hagerstown, MD

10:56 AM EST on November 22, 2019 (GMT -0500)
Hagerstown Regional-Henson

Weather History for KHGR - September, 2019

Change the Weather History Date:

Friday, September 27, 2019

  Actual Average Record
Temperature  
Mean Temperature 67 °F 61 °F  
Max Temperature 80 °F 71 °F 92 °F (2017)
Min Temperature 53 °F 52 °F 39 °F (2000)
Degree Days  
Heating Degree Days 0 5  
Month to date heating degree days 1 51  
Since 1 July heating degree days 1 56  
Cooling Degree Days 2 1  
Month to date cooling degree days 204 88  
Year to date cooling degree days 1413 956  
Growing Degree Days 18 (Base 50)    
Moisture  
Dew Point 51 °F    
Average Humidity 54    
Maximum Humidity 72    
Minimum Humidity 36    
Precipitation  
Precipitation 0.00 in 0.14 in 1.10 in (2018)
Month to date precipitation 0.40 3.25  
Year to date precipitation 28.77 29.88  
Sea Level Pressure  
Sea Level Pressure 30.10 in    
Wind  
Wind Speed 6 mph (SSE)    
Max Wind Speed 16 mph    
Max Gust Speed 25 mph    
Visibility 10 miles    
Events      
T = Trace of Precipitation, MM = Missing Value Source: NWS Daily Summary

Daily Weather History Graph

Daily Weather History Graph

Search for Another Location

Airport or City:

Astronomy

Sep. 27, 2019 Rise Set
Actual Time 7:03 AM EDT 7:00 PM EDT
Civil Twilight 6:36 AM EDT 7:27 PM EDT
Nautical Twilight 6:04 AM EDT 7:58 PM EDT
Astronomical Twilight 5:33 AM EDT 8:30 PM EDT
Moon 5:22 AM EDT (9/27) 6:49 PM EDT (9/27)
Length of Visible Light 12h 50m
Length of Day
11h 57m
Waning Crescent, 2% of the Moon is Illuminated
Sep 27
Waning Crescent
Sep 28
New
Oct 5
First Quarter
Oct 13
Full
Oct 21
Last Quarter

Hourly Weather History & Observations

Time (EDT) Temp. Dew Point Humidity Pressure Visibility Wind Dir Wind Speed Gust Speed Precip Events Conditions
12:53 AM 64.0 °F 48.0 °F 56% 30.02 in 10.0 mi ENE 3.5 mph - N/A   Clear
1:53 AM 61.0 °F 48.0 °F 62% 30.04 in 10.0 mi South 3.5 mph - N/A   Clear
2:53 AM 60.1 °F 46.9 °F 62% 30.05 in 10.0 mi Calm Calm - N/A   Clear
3:53 AM 57.0 °F 46.9 °F 69% 30.06 in 10.0 mi Calm Calm - N/A   Clear
4:53 AM 57.0 °F 46.0 °F 67% 30.08 in 10.0 mi Calm Calm - N/A   Clear
5:53 AM 55.9 °F 46.0 °F 69% 30.09 in 10.0 mi Calm Calm - N/A   Clear
6:53 AM 55.9 °F 46.0 °F 69% 30.11 in 10.0 mi Calm Calm - N/A   Clear
7:53 AM 55.0 °F 46.9 °F 74% 30.14 in 10.0 mi Calm Calm - N/A   Clear
8:53 AM 60.1 °F 48.9 °F 67% 30.16 in 10.0 mi Calm Calm - N/A   Clear
9:53 AM 64.0 °F 48.9 °F 58% 30.18 in 10.0 mi Calm Calm - N/A   Clear
10:53 AM 70.0 °F 48.0 °F 46% 30.17 in 10.0 mi Variable 3.5 mph - N/A   Clear
11:53 AM 73.0 °F 46.9 °F 39% 30.17 in 10.0 mi South 9.2 mph - N/A   Partly Cloudy
12:53 PM 73.9 °F 50.0 °F 43% 30.14 in 10.0 mi South 12.7 mph - N/A   Clear
1:53 PM 75.9 °F 50.0 °F 40% 30.11 in 10.0 mi South 13.8 mph 18.4 mph N/A   Clear
2:53 PM 78.1 °F 51.1 °F 39% 30.09 in 10.0 mi SSW 9.2 mph - N/A   Clear
3:53 PM 80.1 °F 52.0 °F 38% 30.07 in 10.0 mi SSE 12.7 mph 17.3 mph N/A   Partly Cloudy
4:53 PM 79.0 °F 53.1 °F 40% 30.07 in 10.0 mi SSE 12.7 mph - N/A   Clear
5:53 PM 79.0 °F 54.0 °F 42% 30.08 in 10.0 mi South 12.7 mph - N/A   Clear
6:53 PM 77.0 °F 55.0 °F 47% 30.08 in 10.0 mi SSE 6.9 mph - N/A   Clear
7:53 PM 73.9 °F 55.9 °F 53% 30.09 in 10.0 mi SSE 10.4 mph - N/A   Clear
8:53 PM 73.0 °F 55.9 °F 55% 30.10 in 10.0 mi SSE 11.5 mph - N/A   Clear
9:53 PM 73.0 °F 57.9 °F 59% 30.10 in 10.0 mi SSE 10.4 mph - N/A   Clear
10:53 PM 70.0 °F 57.9 °F 65% 30.11 in 10.0 mi South 3.5 mph - N/A   Clear
11:53 PM 70.0 °F 57.9 °F 65% 30.10 in 10.0 mi South 10.4 mph - N/A   Clear